Home > Weather > Cape Canaveral > Past weeks

Flag for USA Past Weather in Cape Canaveral, Florida, USA — Yesterday and Last 2 Weeks

Now
84 °F

Sunny.


Feels Like: 93 °F
Forecast: 79 / 89 °F
Wind: 6 mph from Southwest

Location: Cape Kennedy

Current Time: Jun 26, 2016 at 10:07:38 AM

Latest Report: Jun 26, 2016 at 8:58 AM


Visibility: 10 mi

Pressure: 30.12 "Hg

Humidity: 75%

Dew Point: 76 °F

Location of Cape CanaveralLocation

Past Weather in Cape Canaveral — Graph

°F

Cape Canaveral Temperature Yesterday

Maximum temperature yesterday: 92 °F (at 12:58 PM)
Minimum temperature yesterday: 77 °F (at 6:58 AM)
Average temperature yesterday: 85 °F

High & Low Weather Summary for the Past Weeks

 TemperatureHumidityPressure
High95 °F (Jun 15, 1:58 PM)95% (Jun 12, 2:58 AM)30.21 "Hg (Jun 12, 2:58 AM)
Low69 °F (Jun 12, 5:58 AM)47% (Jun 16, 1:58 PM)29.85 "Hg (Jun 17, 6:58 PM)
Average82 °F74%30.05 "Hg
* Reported Jun 11 8:03 AM — Jun 26 8:58 AM, Cape Canaveral, Weather by CustomWeather, © 2016

Note: Actual official high and low records may vary slightly from our data, if they occured in-between our weather recording intervals... More about our weather records

Advertising

Cape Canaveral Weather History for the Previous 24 Hours

Scroll right to see more
 ConditionsComfort  
Time TempWeatherWind HumidityBarometerVisibility
8:58 AM
Sun, Jun 26
84 °FSunny.6 mph75%30.12 "Hg10 mi
7:58 AM82 °FSunny.8 mph84%30.10 "Hg10 mi
6:58 AM78 °FClear.3 mph90%30.10 "Hg10 mi
5:58 AM78 °FClear.6 mph88%30.08 "Hg10 mi
4:58 AM79 °FClear.5 mph86%30.08 "Hg10 mi
3:58 AM80 °FClear.5 mph84%30.08 "Hg10 mi
2:58 AM81 °FClear.8 mph82%30.07 "Hg10 mi
1:58 AM81 °FClear.10 mph83%30.08 "Hg10 mi
12:58 AM82 °FClear.9 mph82%30.08 "Hg10 mi
11:58 PM
Sat, Jun 25
82 °FClear.9 mph80%30.09 "Hg10 mi
10:58 PM82 °FClear.8 mph80%30.10 "Hg10 mi
9:58 PM83 °FClear.9 mph81%30.09 "Hg10 mi
8:58 PM84 °FSunny.10 mph76%30.07 "Hg10 mi
7:58 PM85 °FSunny.9 mph73%30.07 "Hg10 mi
6:58 PM87 °FSunny.14 mph71%30.05 "Hg10 mi
5:58 PM88 °FSunny.15 mph66%30.04 "Hg10 mi
4:58 PM89 °FSunny.14 mph63%30.06 "Hg10 mi
3:58 PM90 °FSunny.15 mph65%30.07 "Hg10 mi
2:58 PM90 °FSunny.13 mph63%30.08 "Hg10 mi
1:58 PM90 °FPassing clouds.12 mph64%30.09 "Hg10 mi
12:58 PM92 °FPassing clouds.2 mph51%30.10 "Hg10 mi
11:58 AM90 °FSunny.7 mph55%30.12 "Hg10 mi
10:58 AM87 °FSunny.7 mph66%30.12 "Hg10 mi
Weather by CustomWeather, © 2016

See weather overviewHow to use our weather pages